Weather History for Edinburg, TX

Change the Weather History Date:

Wednesday, January 23, 2013

  Actual Average (KMFE) Record (KMFE)
Temperature  
Mean Temperature 68 °F 61 °F  
Max Temperature 81 °F 72 °F 91 °F (1972)
Min Temperature 55 °F 51 °F 30 °F (1903)
Degree Days  
Heating Degree Days 0 6  
Month to date heating degree days 149  
Since 1 July heating degree days 386  
Cooling Degree Days 3 2  
Month to date cooling degree days 46  
Year to date cooling degree days 46  
Growing Degree Days 18 (Base 50)    
Moisture  
Dew Point 58 °F    
Average Humidity 74    
Maximum Humidity 91    
Minimum Humidity 48    
Precipitation  
Precipitation 0.00 in 0.04 in 0.89 in (1975)
Month to date precipitation 0.77  
Year to date precipitation 0.77  
Sea Level Pressure  
Sea Level Pressure 30.26 in    
Wind  
Wind Speed 4 mph (SSE)    
Max Wind Speed 14 mph    
Max Gust Speed 21 mph    
Visibility 6 miles    
Events      
T = Trace of Precipitation, MM = Missing Value Source: NWS Daily Summary

Daily Weather History Graph

Daily Weather History Graph

Search for Another Location

Airport:

Trip Planner

Search our weather history database for the weather conditions in past years. The results will help you decide how hot, cold, wet, or windy it might be!

Date:

Astronomy

Jan. 23, 2013 Rise Set
Actual Time 7:20 AM CST 6:08 PM CST
Civil Twilight 6:56 AM CST 6:33 PM CST
Nautical Twilight 6:27 AM CST 7:01 PM CST
Astronomical Twilight 6:00 AM CST 7:28 PM CST
Moon 3:24 PM CST (1/23) 4:28 AM CST (1/23)
Length of Visible Light 11h 37m
Length of Day
10h 48m
Waxing Gibbous, 89% of the Moon is Illuminated
Jan 23
Waxing Gibbous
Jan 26
Full
Feb 3
Last Quarter
Feb 10
New
Feb 17
First Quarter

Hourly Weather History & Observations

Time (CST) Temp. Heat Index Dew Point Humidity Pressure Visibility Wind Dir Wind Speed Gust Speed Precip Events Conditions
12:15 AM 58.6 °F - 53.1 °F 82% 30.25 in 7.0 mi Calm Calm - N/A   Scattered Clouds
12:35 AM 57.7 °F - 52.7 °F 83% 30.26 in 7.0 mi Calm Calm - N/A   Clear
12:55 AM 58.6 °F - 53.4 °F 83% 30.26 in 7.0 mi North 3.5 mph - N/A   Clear
1:15 AM 58.1 °F - 53.4 °F 84% 30.26 in 7.0 mi North 3.5 mph - N/A   Mostly Cloudy
1:35 AM 59.4 °F - 54.5 °F 84% 30.26 in 7.0 mi Calm Calm - N/A   Overcast
1:55 AM 59.9 °F - 54.7 °F 83% 30.25 in 7.0 mi Calm Calm - N/A   Overcast
2:15 AM 59.9 °F - 54.5 °F 82% 30.25 in 7.0 mi Calm Calm - N/A   Overcast
2:35 AM 59.0 °F - 53.8 °F 83% 30.24 in 7.0 mi NNW 3.5 mph - N/A   Mostly Cloudy
2:55 AM 58.6 °F - 53.8 °F 84% 30.24 in 7.0 mi NNW 3.5 mph - N/A   Scattered Clouds
3:15 AM 57.7 °F - 53.6 °F 86% 30.24 in 7.0 mi Calm Calm - N/A   Clear
3:35 AM 57.4 °F - 53.4 °F 87% 30.23 in 7.0 mi Calm Calm - N/A   Clear
3:55 AM 57.6 °F - 53.6 °F 87% 30.23 in 7.0 mi Calm Calm - N/A   Clear
4:15 AM 57.2 °F - 53.2 °F 87% 30.23 in 7.0 mi Calm Calm - N/A   Clear
4:35 AM 56.8 °F - 53.2 °F 88% 30.23 in 7.0 mi Calm Calm - N/A   Clear
5:15 AM 56.5 °F - 52.9 °F 88% 30.24 in 7.0 mi NNW 3.5 mph - N/A   Clear
5:35 AM 55.9 °F - 52.7 °F 89% 30.25 in 7.0 mi WNW 3.5 mph - N/A   Clear
5:55 AM 55.8 °F - 52.7 °F 89% 30.26 in 7.0 mi NW 4.6 mph - N/A   Clear
6:15 AM 55.6 °F - 52.3 °F 89% 30.26 in 7.0 mi NNW 4.6 mph - N/A   Scattered Clouds
6:35 AM 56.3 °F - 53.2 °F 89% 30.27 in 5.0 mi NNW 4.6 mph - N/A   Scattered Clouds
6:55 AM 56.3 °F - 53.2 °F 89% 30.28 in 5.0 mi North 4.6 mph - N/A   Clear
7:15 AM 55.9 °F - 53.1 °F 90% 30.28 in 5.0 mi North 4.6 mph - N/A   Clear
7:35 AM 55.9 °F - 53.1 °F 90% 30.28 in 3.0 mi Calm Calm - N/A   Mist
7:55 AM 57.0 °F - 54.3 °F 91% 30.29 in 3.0 mi Calm Calm - N/A   Overcast
8:15 AM 57.7 °F - 54.9 °F 90% 30.30 in 4.0 mi Calm Calm - N/A   Scattered Clouds
8:35 AM 59.4 °F - 55.9 °F 88% 30.30 in 3.0 mi NNE 3.5 mph - N/A   Clear
8:55 AM 61.3 °F - 57.4 °F 87% 30.30 in 5.0 mi Calm Calm - N/A   Clear
9:15 AM 63.7 °F - 58.5 °F 83% 30.31 in 5.0 mi Calm Calm - N/A   Haze
9:35 AM 67.1 °F - 59.4 °F 76% 30.31 in 7.0 mi Calm Calm - N/A   Scattered Clouds
9:55 AM 69.8 °F - 61.3 °F 74% 30.32 in 5.0 mi ESE 6.9 mph - N/A   Haze
10:55 AM 75.6 °F - 63.0 °F 65% 30.32 in 7.0 mi SSE 10.4 mph - N/A   Scattered Clouds
11:35 AM 77.4 °F - 62.8 °F 61% 30.31 in 7.0 mi SSE 13.8 mph 17.3 mph N/A   Overcast
11:55 AM 77.2 °F - 63.0 °F 61% 30.31 in 7.0 mi South 10.4 mph - N/A   Overcast
12:15 PM 77.2 °F - 62.2 °F 60% 30.30 in 7.0 mi South 5.8 mph 10.4 mph N/A   Overcast
12:55 PM 77.9 °F - 61.5 °F 57% 30.28 in 7.0 mi South 9.2 mph - N/A   Overcast
1:15 PM 77.4 °F - 61.2 °F 57% 30.27 in 5.0 mi SSW 6.9 mph - N/A   Haze
1:35 PM 77.7 °F - 61.5 °F 57% 30.26 in 7.0 mi South 8.1 mph - N/A   Overcast
1:55 PM 79.9 °F - 61.5 °F 53% 30.25 in 5.0 mi SSW 6.9 mph - N/A   Haze
2:15 PM 79.3 °F - 61.2 °F 54% 30.25 in 7.0 mi SE 4.6 mph - N/A   Overcast
2:35 PM 79.2 °F - 61.7 °F 55% 30.23 in 7.0 mi ESE 5.8 mph - N/A   Mostly Cloudy
2:55 PM 81.9 °F 82.3 °F 60.3 °F 48% 30.23 in 7.0 mi South 10.4 mph 20.7 mph N/A   Mostly Cloudy
3:15 PM 79.5 °F - 61.5 °F 54% 30.23 in 7.0 mi SE 11.5 mph - N/A   Scattered Clouds
3:35 PM 81.1 °F 81.8 °F 60.4 °F 49% 30.22 in 7.0 mi SSE 11.5 mph - N/A   Scattered Clouds
3:55 PM 81.7 °F 82.3 °F 61.0 °F 49% 30.21 in 7.0 mi SSE 11.5 mph - N/A   Clear
4:15 PM 81.0 °F 81.7 °F 60.6 °F 50% 30.21 in 7.0 mi SSE 9.2 mph - N/A   Scattered Clouds
4:35 PM 81.3 °F 81.9 °F 60.4 °F 49% 30.21 in 7.0 mi SSE 8.1 mph - N/A   Scattered Clouds
4:55 PM 80.6 °F 81.5 °F 61.0 °F 51% 30.21 in 7.0 mi South 12.7 mph - N/A   Scattered Clouds
5:15 PM 79.3 °F - 60.8 °F 53% 30.21 in 5.0 mi South 8.1 mph - N/A   Haze
5:35 PM 78.8 °F - 60.8 °F 54% 30.21 in 7.0 mi South 8.1 mph - N/A   Scattered Clouds
5:55 PM 77.9 °F - 60.4 °F 55% 30.21 in 7.0 mi SSE 8.1 mph - N/A   Scattered Clouds
6:15 PM 76.5 °F - 60.6 °F 58% 30.21 in 7.0 mi SSE 9.2 mph - N/A   Scattered Clouds
6:35 PM 75.2 °F - 60.8 °F 61% 30.22 in 7.0 mi SE 8.1 mph - N/A   Clear
6:55 PM 74.1 °F - 60.8 °F 63% 30.23 in 10.0 mi SE 6.9 mph - N/A   Clear
7:15 PM 72.7 °F - 60.8 °F 66% 30.24 in 7.0 mi SSE 6.9 mph - N/A   Clear
7:35 PM 70.3 °F - 60.3 °F 70% 30.24 in 7.0 mi SE 6.9 mph - N/A   Clear
7:55 PM 70.2 °F - 60.8 °F 72% 30.25 in 7.0 mi SSE 5.8 mph - N/A   Clear
8:15 PM 68.2 °F - 60.4 °F 76% 30.25 in 7.0 mi SE 6.9 mph - N/A   Clear
8:35 PM 67.5 °F - 60.3 °F 78% 30.26 in 7.0 mi SE 5.8 mph - N/A   Clear
9:15 PM 67.1 °F - 61.3 °F 82% 30.27 in 7.0 mi SE 6.9 mph - N/A   Clear
9:35 PM 68.0 °F - 62.2 °F 82% 30.26 in 7.0 mi SSE 6.9 mph - N/A   Clear
9:55 PM 68.0 °F - 62.2 °F 82% 30.26 in 5.0 mi SE 6.9 mph - N/A   Haze
10:15 PM 67.5 °F - 62.1 °F 83% 30.26 in 7.0 mi SSE 6.9 mph - N/A   Clear
10:35 PM 67.3 °F - 62.1 °F 83% 30.27 in 7.0 mi SSE 6.9 mph - N/A   Clear
10:55 PM 67.1 °F - 61.7 °F 83% 30.26 in 7.0 mi SSE 6.9 mph - N/A   Clear
11:15 PM 66.7 °F - 61.7 °F 84% 30.26 in 7.0 mi SSE 8.1 mph - N/A   Clear
11:55 PM 66.7 °F - 61.7 °F 84% 30.26 in 7.0 mi SSE 8.1 mph - N/A   Clear